Wind_Speed
7 7 8 9 10 11 12 12 13 14 14 15 15 16 16 16 15 15 14 14 14 14 14 14 15 15 15 15 14 13 13 12 11 11 11 11 11 11 11 11 11 11 11 11
8 9 10 11 12 12 14 15 15 16 16 17 17 17 17 17 17 16 16 16 16 16 16 16 16 16 17 16 16 15 15 14 13 12 11 11 11 10 10 10 10 10 10 10
9 10 11 13 13 14 15 16 17 17 17 18 18 18 18 18 18 18 18 18 18 18 18 18 18 18 18 18 18 17 17 16 15 14 13 12 12 11 10 10 10 10 9 9
12 12 13 14 15 16 17 18 18 18 19 20 20 20 20 20 20 20 20 20 20 20 21 21 21 21 21 20 20 19 19 18 17 16 15 14 13 12 11 11 10 10 9 9
15 16 16 17 17 18 19 20 20 20 21 22 22 23 23 23 23 23 23 23 23 23 23 23 23 23 23 22 22 22 21 21 20 19 18 17 15 14 13 12 12 11 10 9
18 19 20 20 20 21 22 23 23 23 24 25 25 25 25 26 26 27 27 26 25 25 25 26 26 25 25 25 24 24 24 23 22 21 20 19 18 17 16 14 13 12 11 11
22 23 24 24 24 25 26 27 27 27 28 29 29 30 29 28 29 29 30 30 29 28 28 28 28 28 28 27 27 26 26 26 25 24 23 22 21 19 18 17 16 14 13 12
26 27 27 28 28 28 29 31 31 32 32 32 33 33 33 33 33 32 33 33 33 32 32 31 31 31 30 30 30 29 29 28 27 26 25 25 23 22 21 19 18 17 16 15
29 30 31 31 32 32 33 34 35 36 36 37 37 37 37 37 36 37 37 37 37 36 35 35 35 35 34 33 33 32 31 31 30 29 28 27 26 25 23 22 21 19 18 17
32 33 34 34 35 36 37 38 39 40 40 40 41 41 41 41 40 40 40 40 40 40 39 38 38 38 38 37 36 35 34 33 33 31 31 30 29 28 26 25 23 22 21 20
35 36 37 38 39 40 40 41 42 43 43 44 44 44 44 45 44 44 43 43 43 43 42 42 41 41 41 40 40 39 37 36 35 34 33 32 32 30 29 28 26 25 24 23
37 38 40 41 42 43 44 44 45 46 46 47 48 48 47 47 47 47 47 46 46 46 45 45 44 43 44 43 43 42 41 39 38 37 36 35 34 33 32 30 29 28 27 26
41 42 43 44 45 46 47 48 49 49 50 50 50 50 50 50 49 49 49 48 48 47 47 46 46 45 45 45 45 45 44 42 41 40 39 37 36 35 34 33 32 30 29 28
45 46 46 47 48 49 50 51 52 52 52 53 52 52 51 50 50 50 49 48 48 47 47 46 46 46 46 47 47 47 46 45 44 43 42 40 39 37 36 35 34 33 32 31
47 48 49 49 50 51 52 53 54 54 54 53 53 53 52 51 50 50 49 48 47 47 47 46 46 45 46 46 47 47 47 47 46 45 44 43 42 40 38 37 36 35 34 33
50 51 51 52 52 52 53 54 54 54 54 53 52 52 51 51 49 48 47 47 47 47 46 46 46 45 46 46 46 47 48 48 48 48 46 45 44 43 41 40 39 38 36 35
51 52 52 52 53 53 54 54 53 53 53 52 52 50 49 48 47 46 46 46 46 46 46 46 45 45 46 46 47 47 47 48 49 49 48 47 46 45 43 42 41 39 38 37
51 52 52 52 53 54 54 53 53 52 52 52 51 50 49 48 47 46 45 45 45 46 46 46 46 45 46 46 47 47 47 47 48 49 49 48 47 46 45 44 42 41 40 39
52 52 52 53 53 53 53 53 53 52 52 51 50 49 48 48 48 47 46 46 45 45 45 46 45 45 45 46 47 47 46 46 47 48 49 49 49 48 47 45 44 42 41 40
53 53 53 54 54 54 54 53 53 52 52 52 51 49 49 48 48 48 47 45 45 44 44 45 44 44 44 45 46 47 46 46 47 47 48 48 49 49 49 47 45 44 43 42
53 53 53 53 54 53 53 53 53 52 51 51 51 50 49 48 48 48 47 46 44 44 43 43 43 43 44 45 45 46 46 46 47 47 47 48 48 48 49 48 47 45 44 42
52 52 53 53 53 53 52 52 52 52 51 50 50 49 48 47 47 46 46 45 43 43 42 42 42 42 43 44 44 45 46 46 47 48 48 48 48 48 49 48 48 47 45 43
52 52 53 53 52 52 51 51 50 50 49 48 48 48 47 46 45 45 43 42 42 42 41 40 40 40 41 42 43 43 44 46 46 47 47 47 47 47 48 48 48 47 46 44
51 52 52 52 52 51 50 49 49 49 48 47 46 46 45 45 43 43 42 40 40 40 39 39 39 39 39 40 41 42 42 44 45 46 46 46 47 47 47 48 48 47 46 45
50 50 50 50 50 49 49 48 48 48 47 45 44 43 42 42 41 40 40 39 38 37 37 37 37 37 37 38 39 41 41 42 44 45 46 46 46 47 47 47 47 47 46 45
49 49 50 50 49 48 47 47 47 46 44 42 40 39 39 39 39 38 38 37 36 35 34 34 35 34 35 36 37 38 40 41 42 44 45 45 45 45 46 46 46 46 46 45
49 48 48 48 47 46 45 45 43 42 40 39 37 36 37 37 36 36 36 35 33 32 31 31 32 32 32 33 34 34 36 38 39 41 43 44 44 44 44 44 45 45 45 44
Wind_Direction
329 318 312 309 308 305 302 302 300 299 297 295 294 295 296 296 296 293 287 282 277 275 275 275 275 275 275 277 279 282 285 291 298 307 317 326 335 340 344 350 355 1 5 8
316 312 310 309 308 303 301 301 300 300 300 299 298 298 297 296 296 294 289 284 279 276 274 273 272 273 273 273 274 276 278 281 286 294 302 311 320 328 334 338 343 348 353 358
308 307 307 305 307 305 303 303 304 303 301 298 298 299 297 294 292 290 289 286 283 278 275 274 273 272 272 271 271 272 272 274 278 282 288 295 303 312 319 324 330 335 338 341
309 308 307 310 309 307 306 304 304 302 301 300 298 297 295 293 289 286 285 283 282 279 277 275 273 271 271 270 269 269 269 270 272 275 279 284 289 295 302 310 316 321 323 326
312 313 312 309 307 306 305 303 302 300 299 298 296 294 293 291 288 285 282 280 279 277 276 275 273 271 270 269 268 268 267 267 268 270 272 275 279 283 289 295 302 307 310 311
310 310 309 309 307 305 302 300 300 298 297 295 293 291 290 288 285 283 281 280 278 276 275 273 272 271 269 268 267 266 265 265 265 266 268 269 271 275 280 284 289 294 298 300
307 306 305 306 306 303 301 301 299 297 295 294 292 291 289 285 282 280 279 278 276 274 272 272 270 269 268 267 266 265 264 263 263 263 264 265 266 269 272 275 279 283 287 290
303 303 303 304 302 300 299 298 297 296 294 292 290 289 288 287 284 280 278 277 275 273 271 269 268 267 266 266 264 263 262 262 261 261 261 262 263 265 267 269 272 275 278 281
300 300 299 299 298 298 297 296 295 294 293 290 288 287 286 285 283 281 279 277 275 273 270 268 266 265 264 263 263 263 261 261 260 259 259 259 260 261 263 265 267 269 272 275
299 299 298 297 297 296 295 294 294 293 292 290 288 286 285 284 282 280 278 276 275 273 271 268 265 264 262 261 260 260 260 260 259 258 257 257 257 258 259 261 263 265 267 270
299 299 297 297 295 294 294 293 292 291 290 289 288 287 284 283 282 281 278 275 273 272 270 268 266 263 262 260 259 258 258 258 257 256 255 256 256 256 257 258 259 261 263 265
298 298 297 296 295 294 293 292 291 290 289 288 287 287 285 283 281 280 278 275 273 271 269 267 266 263 261 259 258 256 256 256 255 255 254 254 254 254 255 256 257 258 260 262
297 296 296 295 294 294 293 292 292 291 290 288 287 286 286 284 282 280 278 276 273 271 268 266 264 262 260 258 256 255 253 253 253 253 252 251 252 252 252 253 254 255 256 258
297 297 296 296 295 295 294 293 293 292 291 290 289 288 286 284 283 280 278 276 273 271 268 266 263 260 259 257 255 253 251 251 251 251 251 250 249 249 250 250 251 252 254 256
296 296 296 296 295 295 295 294 294 293 292 290 289 288 287 285 284 282 279 276 274 271 269 266 263 260 258 256 255 252 250 249 248 248 248 248 247 247 248 248 249 251 252 253
295 296 296 296 296 296 295 295 294 293 292 291 289 288 287 286 285 283 280 277 274 272 269 265 262 259 257 256 254 252 250 248 247 247 246 245 246 245 246 247 248 249 250 252
296 296 296 295 295 295 296 295 295 294 293 291 290 289 287 286 285 283 281 278 274 272 270 266 262 259 256 255 254 252 250 248 247 246 245 244 244 244 244 245 247 248 249 251
297 297 296 295 296 296 295 294 293 293 293 292 290 289 288 287 285 284 282 279 275 272 270 267 264 259 256 254 252 251 249 248 247 246 245 243 242 242 243 243 245 246 248 249
297 297 297 296 296 296 295 294 293 292 292 291 290 289 288 286 285 284 283 281 277 273 269 267 264 260 256 253 251 249 247 246 245 245 244 242 240 240 240 241 242 244 246 248
296 296 297 297 296 296 295 294 293 292 291 291 289 288 287 286 285 285 284 282 280 276 272 267 264 260 255 252 251 249 247 245 243 243 242 242 240 239 239 239 240 242 244 245
296 296 297 297 297 297 296 295 294 293 292 291 290 288 287 286 285 285 284 282 279 276 273 269 264 260 256 253 251 249 246 244 242 242 241 240 239 238 238 238 239 240 242 243
295 296 297 297 297 297 296 296 295 295 293 291 290 289 288 287 286 285 284 282 280 276 272 269 265 261 257 253 250 248 245 243 241 241 240 239 238 237 237 236 237 239 240 241
295 296 296 297 297 296 296 296 296 296 295 293 292 290 289 287 286 286 284 282 280 277 273 269 266 262 257 253 250 248 245 242 240 239 238 237 237 237 236 236 237 237 239 240
294 295 296 296 296 296 296 296 296 296 295 294 292 290 289 288 286 285 284 283 281 277 272 268 266 262 257 253 249 247 244 241 239 238 236 235 235 235 235 235 236 237 238 239
294 295 295 295 296 296 296 296 296 296 295 294 292 290 290 289 288 286 284 284 281 278 273 266 263 262 259 253 248 244 242 240 237 236 235 233 234 235 235 235 235 236 238 239
294 295 295 295 295 295 295 296 296 296 294 292 291 290 289 289 288 287 285 284 282 279 273 267 263 261 258 252 247 243 239 237 235 234 233 232 232 233 234 234 235 235 237 239
293 294 294 294 293 294 295 296 296 296 294 292 292 291 289 288 287 287 286 284 281 278 274 270 266 261 255 250 246 241 237 236 234 233 232 229 229 230 232 234 234 234 236 238
Height
5828 5827 5826 5825 5824 5823 5822 5821 5820 5819 5818 5817 5816 5815 5814 5813 5812 5811 5810 5809 5808 5808 5807 5807 5806 5805 5804 5803 5803 5801 5800 5799 5797 5796 5794 5791 5789 5786 5784 5782 5779 5777 5774 5772
5826 5825 5824 5823 5822 5820 5819 5818 5817 5816 5815 5813 5812 5811 5810 5809 5808 5807 5806 5805 5804 5803 5803 5802 5801 5801 5800 5799 5798 5797 5797 5795 5794 5793 5791 5789 5787 5785 5783 5780 5778 5776 5774 5772
5824 5822 5821 5820 5819 5817 5815 5814 5813 5812 5812 5809 5808 5807 5806 5805 5804 5802 5801 5800 5799 5799 5798 5797 5796 5796 5795 5794 5793 5793 5792 5791 5790 5789 5788 5786 5785 5783 5781 5779 5777 5775 5773 5771
5820 5820 5818 5819 5815 5813 5811 5809 5808 5806 5805 5804 5803 5801 5800 5799 5798 5797 5796 5795 5794 5793 5792 5792 5791 5790 5789 5788 5788 5787 5787 5786 5785 5785 5784 5782 5781 5780 5778 5776 5775 5773 5771 5769
5816 5814 5813 5812 5810 5808 5806 5804 5802 5801 5799 5798 5796 5795 5794 5792 5791 5790 5789 5788 5787 5786 5786 5785 5784 5783 5783 5782 5782 5781 5780 5780 5780 5779 5778 5778 5777 5776 5774 5773 5771 5770 5768 5767
5811 5809 5807 5807 5805 5802 5801 5798 5796 5794 5792 5791 5790 5788 5788 5785 5783 5782 5781 5780 5780 5779 5778 5777 5777 5776 5776 5775 5775 5774 5774 5773 5773 5773 5772 5772 5771 5771 5770 5769 5767 5766 5765 5764
5805 5803 5801 5800 5798 5796 5794 5792 5789 5787 5785 5783 5781 5779 5778 5776 5775 5773 5772 5771 5770 5770 5769 5768 5768 5767 5767 5767 5767 5767 5766 5766 5765 5765 5765 5765 5765 5765 5764 5764 5763 5762 5761 5760
5798 5796 5795 5792 5789 5788 5786 5782 5779 5777 5775 5773 5771 5768 5766 5765 5764 5763 5762 5761 5760 5759 5759 5758 5757 5757 5757 5757 5757 5757 5757 5757 5757 5758 5758 5758 5758 5758 5758 5758 5757 5756 5756 5755
5791 5790 5785 5782 5780 5777 5775 5772 5769 5766 5764 5761 5759 5757 5755 5754 5752 5750 5749 5748 5748 5747 5747 5747 5746 5746 5746 5747 5746 5747 5747 5748 5748 5748 5749 5749 5750 5750 5751 5751 5750 5750 5750 5749
5781 5778 5775 5773 5770 5767 5764 5761 5757 5754 5751 5749 5746 5744 5743 5741 5739 5737 5736 5735 5734 5734 5734 5734 5734 5734 5734 5734 5735 5735 5736 5737 5738 5738 5739 5740 5741 5741 5742 5743 5743 5743 5743 5743
5771 5768 5765 5762 5759 5755 5752 5749 5745 5742 5738 5735 5733 5730 5728 5727 5725 5723 5722 5720 5720 5719 5720 5720 5720 5720 5720 5721 5721 5723 5724 5725 5726 5727 5728 5730 5731 5732 5733 5734 5734 5735 5735 5735
5761 5758 5754 5751 5747 5743 5739 5736 5733 5729 5726 5722 5718 5715 5713 5711 5709 5707 5706 5704 5704 5703 5703 5704 5705 5705 5706 5706 5707 5709 5710 5712 5714 5715 5717 5718 5720 5721 5722 5724 5725 5726 5727 5727
5749 5745 5741 5738 5734 5730 5726 5722 5718 5714 5710 5707 5703 5699 5696 5694 5691 5690 5688 5687 5686 5686 5686 5687 5688 5689 5689 5690 5691 5693 5696 5698 5700 5702 5704 5706 5708 5710 5711 5713 5714 5716 5717 5718
5735 5731 5728 5724 5720 5715 5711 5706 5702 5698 5694 5690 5686 5683 5679 5677 5674 5672 5670 5668 5668 5668 5668 5669 5670 5671 5672 5673 5675 5677 5680 5683 5685 5688 5691 5693 5695 5697 5699 5701 5703 5705 5706 5708
5721 5717 5713 5709 5704 5700 5695 5690 5686 5681 5677 5673 5668 5665 5662 5659 5657 5655 5652 5651 5650 5651 5651 5651 5653 5654 5654 5656 5658 5661 5664 5667 5669 5672 5676 5679 5682 5684 5687 5689 5691 5693 5695 5697
5706 5702 5697 5693 5688 5683 5678 5673 5668 5664 5659 5655 5652 5648 5644 5641 5639 5637 5635 5633 5633 5633 5633 5633 5635 5636 5637 5639 5641 5644 5647 5651 5653 5656 5660 5664 5667 5671 5674 5676 5679 5681 5683 5686
5690 5686 5681 5677 5672 5667 5662 5657 5651 5647 5642 5638 5635 5631 5628 5625 5623 5620 5618 5616 5615 5615 5615 5615 5617 5618 5620 5622 5624 5627 5630 5634 5637 5640 5644 5648 5653 5656 5660 5663 5666 5669 5671 5674
5674 5669 5664 5659 5655 5650 5645 5640 5635 5630 5626 5621 5618 5615 5612 5609 5606 5604 5602 5600 5599 5598 5598 5597 5598 5600 5602 5604 5606 5610 5613 5616 5620 5624 5628 5633 5637 5641 5645 5649 5653 5656 5658 5661
5658 5653 5649 5643 5638 5633 5628 5623 5619 5614 5609 5605 5602 5598 5595 5592 5590 5588 5586 5584 5582 5581 5581 5580 5581 5582 5584 5587 5589 5592 5595 5599 5603 5608 5612 5617 5621 5626 5630 5635 5638 5642 5645 5648
5642 5638 5633 5628 5622 5617 5612 5607 5602 5598 5593 5589 5585 5582 5579 5577 5573 5571 5569 5567 5565 5564 5563 5563 5564 5565 5567 5569 5572 5575 5579 5582 5587 5591 5596 5600 5605 5610 5615 5620 5624 5628 5632 5635
5626 5622 5617 5612 5607 5602 5596 5591 5586 5582 5577 5573 5569 5566 5563 5561 5558 5555 5552 5551 5550 5548 5547 5547 5547 5548 5550 5552 5555 5558 5562 5566 5570 5575 5580 5585 5590 5595 5600 5605 5610 5614 5618 5622
5610 5606 5601 5596 5591 5586 5581 5576 5571 5566 5562 5558 5553 5549 5546 5544 5542 5539 5537 5535 5533 5532 5531 5531 5531 5532 5533 5535 5538 5541 5545 5550 5554 5559 5564 5569 5574 5580 5585 5590 5596 5600 5604 5608
5594 5590 5585 5580 5575 5571 5566 5561 5555 5551 5546 5542 5538 5534 5531 5528 5526 5523 5522 5520 5518 5516 5515 5515 5516 5516 5517 5519 5522 5526 5529 5534 5538 5543 5549 5554 5559 5565 5570 5576 5581 5586 5590 5594
5579 5574 5570 5565 5560 5555 5551 5546 5541 5536 5532 5527 5523 5519 5516 5513 5511 5508 5506 5505 5503 5501 5500 5501 5501 5501 5502 5504 5507 5511 5514 5519 5523 5529 5534 5539 5544 5550 5555 5561 5566 5571 5576 5580
5564 5559 5554 5550 5545 5540 5536 5531 5527 5522 5518 5514 5510 5506 5502 5499 5496 5495 5493 5491 5489 5487 5486 5487 5487 5487 5488 5490 5493 5496 5500 5504 5509 5514 5519 5524 5530 5536 5541 5547 5552 5558 5562 5567
5549 5544 5540 5535 5530 5525 5521 5517 5513 5508 5504 5500 5497 5493 5490 5487 5484 5482 5480 5478 5476 5474 5473 5473 5474 5474 5475 5477 5479 5482 5486 5490 5495 5500 5505 5511 5516 5522 5528 5533 5539 5544 5549 5554
5534 5529 5525 5520 5516 5511 5507 5503 5499 5495 5491 5487 5484 5482 5478 5475 5473 5470 5468 5466 5464 5463 5462 5461 5461 5462 5463 5465 5467 5470 5474 5478 5483 5487 5492 5498 5504 5510 5515 5520 5526 5531 5536 5541